Caro, MI

7:21 PM EDT on April 26, 2018 (GMT -0400)
Caro

Weather History for KCFS - October, 2012

Change the Weather History Date:

Thursday, October 4, 2012

  Actual Average (KMBS) Record (KMBS)
Temperature  
Mean Temperature 66 °F -  
Max Temperature 75 °F 63 °F 86 °F (2005)
Min Temperature 58 °F 40 °F 30 °F (1996)
Cooling Degree Days 2    
Growing Degree Days 16 (Base 50)    
Moisture  
Dew Point 54 °F    
Average Humidity 73    
Maximum Humidity 97    
Minimum Humidity 37    
Precipitation  
Precipitation 0.00 in - - ()
Sea Level Pressure  
Sea Level Pressure 30.01 in    
Wind  
Wind Speed 8 mph (SSW)    
Max Wind Speed 17 mph    
Max Gust Speed 22 mph    
Visibility 10 miles    
Events Rain    
Averages and records for this station are not official NWS values.
T = Trace of Precipitation, MM = Missing Value Source: NWS Daily Summary

Daily Weather History Graph

Daily Weather History Graph

Search for Another Location

Airport or City:

Astronomy

Oct. 04, 2012 Rise Set
Actual Time 7:35 AM EDT 7:08 PM EDT
Civil Twilight 7:06 AM EDT 7:37 PM EDT
Nautical Twilight 6:33 AM EDT 8:10 PM EDT
Astronomical Twilight 6:00 AM EDT 8:43 PM EDT
Moon 9:35 PM EDT (10/4) 11:59 AM EDT (10/4)
Length of Visible Light 12h 30m
Length of Day
11h 33m
Waning Gibbous, 82% of the Moon is Illuminated
Oct 4
Waning Gibbous
Oct 8
Last Quarter
Oct 15
New
Oct 21
First Quarter
Oct 29
Full

Hourly Weather History & Observations

Time (EDT) Temp. Dew Point Humidity Pressure Visibility Wind Dir Wind Speed Gust Speed Precip Events Conditions
12:15 AM 59.4 °F 55.8 °F 88% 30.04 in 10.0 mi South 5.8 mph - N/A   Mostly Cloudy
12:34 AM 59.7 °F 55.8 °F 87% 30.04 in 10.0 mi South 5.8 mph - N/A   Overcast
12:55 AM 59.2 °F 55.9 °F 89% 30.04 in 10.0 mi South 4.6 mph - N/A   Overcast
1:15 AM 58.6 °F 55.8 °F 90% 30.04 in 10.0 mi South 3.5 mph - N/A   Overcast
1:34 AM 59.0 °F 56.3 °F 91% 30.04 in 10.0 mi South 3.5 mph - N/A   Overcast
1:55 AM 59.4 °F 55.9 °F 88% 30.04 in 10.0 mi SSE 3.5 mph - N/A   Overcast
2:14 AM 59.2 °F 55.8 °F 88% 30.04 in 10.0 mi SSE 5.8 mph - N/A   Overcast
2:35 AM 59.0 °F 55.9 °F 90% 30.04 in 10.0 mi SSE 4.6 mph - N/A   Overcast
2:55 AM 59.0 °F 55.9 °F 90% 30.03 in 10.0 mi SSE 5.8 mph - N/A   Overcast
3:15 AM 59.4 °F 55.8 °F 88% 30.03 in 10.0 mi South 6.9 mph - N/A   Overcast
3:35 AM 60.8 °F 55.0 °F 81% 30.02 in 10.0 mi SSW 10.4 mph - N/A   Overcast
3:54 AM 60.4 °F 54.7 °F 81% 30.02 in 10.0 mi SSW 8.1 mph - N/A   Overcast
4:15 AM 59.0 °F 55.6 °F 88% 30.01 in 7.0 mi SSW 5.8 mph - N/A   Drizzle
4:35 AM 58.1 °F 56.3 °F 94% 30.01 in 10.0 mi Calm Calm - N/A   Overcast
4:54 AM 58.3 °F 56.3 °F 93% 30.00 in 10.0 mi South 6.9 mph - N/A   Overcast
5:15 AM 59.2 °F 55.6 °F 88% 30.00 in 10.0 mi SSW 10.4 mph - N/A   Overcast
5:35 AM 59.5 °F 55.0 °F 85% 30.01 in 10.0 mi SSW 9.2 mph - N/A   Overcast
5:54 AM 60.3 °F 54.7 °F 82% 30.02 in 10.0 mi SSW 11.5 mph - N/A   Overcast
6:15 AM 60.8 °F 54.5 °F 80% 30.02 in 10.0 mi SW 11.5 mph - N/A   Overcast
6:35 AM 60.4 °F 54.7 °F 81% 30.02 in 10.0 mi SSW 10.4 mph - N/A   Overcast
6:54 AM 60.1 °F 55.0 °F 83% 30.02 in 10.0 mi SW 10.4 mph 17.3 mph N/A   Overcast
7:15 AM 59.9 °F 55.0 °F 84% 30.02 in 10.0 mi SSW 10.4 mph - N/A   Overcast
7:35 AM 59.4 °F 54.9 °F 85% 30.02 in 10.0 mi SSW 8.1 mph - N/A   Overcast
7:54 AM 59.2 °F 55.0 °F 86% 30.03 in 10.0 mi SSW 5.8 mph - N/A   Overcast
8:15 AM 59.5 °F 55.4 °F 86% 30.03 in 10.0 mi SW 9.2 mph - N/A   Overcast
8:35 AM 59.4 °F 55.6 °F 87% 30.03 in 10.0 mi SSW 8.1 mph - N/A   Overcast
8:55 AM 59.7 °F 56.1 °F 88% 30.03 in 10.0 mi SSW 8.1 mph - N/A   Overcast
9:15 AM 59.5 °F 55.8 °F 87% 30.03 in 10.0 mi SSW 6.9 mph - N/A   Overcast
9:34 AM 59.9 °F 56.3 °F 88% 30.03 in 10.0 mi SSW 8.1 mph - N/A   Overcast
9:55 AM 60.4 °F 56.3 °F 86% 30.03 in 10.0 mi SSW 8.1 mph - N/A   Mostly Cloudy
10:15 AM 61.5 °F 57.0 °F 85% 30.03 in 10.0 mi SW 9.2 mph - N/A   Scattered Clouds
10:34 AM 61.7 °F 57.2 °F 85% 30.03 in 10.0 mi SW 9.2 mph - N/A   Mostly Cloudy
10:55 AM 62.1 °F 57.2 °F 84% 30.04 in 10.0 mi SW 10.4 mph - N/A   Overcast
11:14 AM 62.1 °F 56.8 °F 83% 30.04 in 10.0 mi SW 11.5 mph - N/A   Overcast
11:35 AM 61.7 °F 57.0 °F 85% 30.04 in 10.0 mi SW 13.8 mph 18.4 mph N/A   Overcast
11:55 AM 62.6 °F 57.4 °F 83% 30.04 in 10.0 mi SW 12.7 mph 17.3 mph N/A   Overcast
12:14 PM 64.4 °F 57.7 °F 79% 30.04 in 10.0 mi SW 12.7 mph - N/A   Overcast
12:35 PM 64.9 °F 57.0 °F 75% 30.04 in 10.0 mi SW 16.1 mph 21.9 mph N/A   Mostly Cloudy
12:55 PM 67.3 °F 56.3 °F 68% 30.03 in 10.0 mi SW 12.7 mph - N/A   Mostly Cloudy
1:14 PM 67.8 °F 55.8 °F 65% 30.03 in 10.0 mi SW 11.5 mph - N/A   Scattered Clouds
1:35 PM 69.1 °F 54.1 °F 59% 30.02 in 10.0 mi SW 12.7 mph - N/A   Clear
1:55 PM 70.3 °F 53.8 °F 56% 30.01 in 10.0 mi SSW 16.1 mph 21.9 mph N/A   Clear
2:35 PM 72.5 °F 53.8 °F 52% 30.00 in 10.0 mi SW 16.1 mph 20.7 mph N/A   Clear
2:54 PM 73.8 °F 54.3 °F 51% 29.99 in 10.0 mi SSW 13.8 mph 18.4 mph N/A   Clear
3:15 PM 74.3 °F 52.9 °F 47% 29.99 in 10.0 mi SW 12.7 mph 17.3 mph N/A   Clear
3:35 PM 74.5 °F 51.8 °F 45% 29.98 in 10.0 mi SW 15.0 mph 19.6 mph N/A   Clear
3:54 PM 74.3 °F 51.6 °F 45% 29.98 in 10.0 mi WSW 15.0 mph - N/A   Scattered Clouds
4:15 PM 75.4 °F 50.2 °F 41% 29.97 in 10.0 mi SW 15.0 mph 19.6 mph N/A   Scattered Clouds
4:34 PM 75.6 °F 49.1 °F 39% 29.97 in 10.0 mi SW 17.3 mph 21.9 mph N/A   Scattered Clouds
4:55 PM 75.0 °F 47.5 °F 38% 29.97 in 10.0 mi SW 12.7 mph 21.9 mph N/A   Scattered Clouds
5:15 PM 75.2 °F 47.1 °F 37% 29.97 in 10.0 mi SW 11.5 mph 18.4 mph N/A   Scattered Clouds
5:34 PM 75.2 °F 47.1 °F 37% 29.97 in 10.0 mi SW 12.7 mph 18.4 mph N/A   Clear
5:55 PM 74.1 °F 47.7 °F 39% 29.97 in 10.0 mi SSW 12.7 mph 17.3 mph N/A   Clear
6:15 PM 72.9 °F 47.5 °F 40% 29.97 in 10.0 mi SW 11.5 mph 16.1 mph N/A   Scattered Clouds
6:34 PM 73.2 °F 47.1 °F 39% 29.97 in 10.0 mi SSW 13.8 mph 18.4 mph N/A   Mostly Cloudy
6:55 PM 71.2 °F 47.3 °F 42% 29.97 in 10.0 mi SSW 9.2 mph - N/A   Mostly Cloudy
7:14 PM 70.2 °F 47.5 °F 44% 29.97 in 10.0 mi South 5.8 mph - N/A   Mostly Cloudy
7:35 PM 70.2 °F 48.0 °F 45% 29.97 in 10.0 mi SSW 6.9 mph - N/A   Mostly Cloudy
7:55 PM 68.9 °F 48.7 °F 49% 29.97 in 10.0 mi South 4.6 mph - N/A   Scattered Clouds
8:14 PM 67.6 °F 50.0 °F 53% 29.97 in 10.0 mi SW 4.6 mph - N/A   Mostly Cloudy
8:35 PM 66.6 °F 53.1 °F 62% 29.97 in 10.0 mi SSW 9.2 mph 20.7 mph N/A Rain Light Rain
8:55 PM 65.3 °F 53.8 °F 66% 29.97 in 10.0 mi Calm Calm - N/A   Overcast
10:14 PM 64.4 °F 54.3 °F 70% 29.96 in 10.0 mi SW 6.9 mph - N/A Rain Rain
10:35 PM 63.7 °F 55.6 °F 75% 29.95 in 10.0 mi SW 9.2 mph - N/A   Overcast
10:55 PM 63.1 °F 57.4 °F 81% 29.97 in 10.0 mi SW 10.4 mph - N/A Rain Rain
11:15 PM 61.5 °F 59.2 °F 92% 29.98 in 5.0 mi SW 9.2 mph 17.3 mph N/A Rain Light Rain
11:35 PM 61.3 °F 60.3 °F 96% 29.98 in 5.0 mi SW 10.4 mph 17.3 mph N/A Rain Rain
11:54 PM 61.2 °F 60.3 °F 97% 29.96 in 7.0 mi SSW 8.1 mph - N/A Rain Rain